Torna al catalogo

CENTISPACE-1 S9

AttivoNavigazioneLEO
NORAD 62578·PAYLOAD·🇨🇳 China

Lanciato Jan 13, 2025 da Yellow Sea Launch Area

Loading…

Prossimi Passaggi (prossime 24 ore)

TLE

AggiornatoSource: Space-Track

Epoca: Sep 14, 2026, 14:17 UTC

1 62578U 25007D   26257.59558238 -.00000054  00000-0  82007-4 0  9990
2 62578  54.9844 339.6382 0009449 246.6140 113.3823 13.80622079 87067

Traccia CENTISPACE-1 S9 in tempo reale con AllMySat

Download on the App Store